YMA7468 KRNO-KPDX

Flight info

Callsign YMA7468
Flight time 1h 8m
Altitude 32000
Route BLKJK WNDEL J92 LMT GALLO TMBRS4
Aircraft B738/M-SDE2E3FGHIRWXY/LB1

Departure

Time 2026-05-07 09:25
Airport Reno Tahoe International Airport (KRNO)

Arrival

Time 2026-05-07 10:33
Airport Portland International Airport (KPDX)
Time Latitude Longitude Altitude Speed Heading
2026-05-07 08:58 39.50653 -119.77277 4418 ft 0 kts 360°
2026-05-07 09:13 39.50641 -119.77277 4418 ft 2 kts 359°
2026-05-07 09:13 39.50626 -119.77277 4417 ft 2 kts 360°
2026-05-07 09:14 39.50611 -119.77277 4417 ft 2 kts 359°
2026-05-07 09:14 39.50598 -119.77277 4417 ft 1 kts 20°
2026-05-07 09:14 39.50593 -119.77282 4417 ft 0 kts 64°
2026-05-07 09:14 39.50590 -119.77288 4417 ft 0 kts 57°
2026-05-07 09:16 39.50602 -119.77259 4417 ft 7 kts 66°
2026-05-07 09:17 39.50619 -119.77197 4417 ft 6 kts 76°
2026-05-07 09:17 39.50618 -119.77121 4417 ft 9 kts 110°
2026-05-07 09:17 39.50561 -119.77058 4416 ft 14 kts 159°
2026-05-07 09:17 39.50435 -119.77055 4415 ft 21 kts 183°
2026-05-07 09:18 39.50285 -119.77074 4415 ft 21 kts 184°
2026-05-07 09:18 39.50143 -119.77079 4414 ft 19 kts 176°
2026-05-07 09:18 39.50006 -119.77068 4413 ft 19 kts 176°
2026-05-07 09:18 39.49873 -119.77062 4413 ft 18 kts 179°
2026-05-07 09:19 39.49750 -119.77063 4413 ft 17 kts 180°
2026-05-07 09:19 39.49634 -119.77065 4413 ft 16 kts 180°
2026-05-07 09:19 39.49526 -119.77066 4413 ft 14 kts 180°
2026-05-07 09:19 39.49427 -119.77068 4413 ft 13 kts 180°
2026-05-07 09:20 39.49335 -119.77070 4413 ft 12 kts 181°
2026-05-07 09:20 39.49256 -119.77071 4415 ft 10 kts 181°
2026-05-07 09:20 39.49192 -119.77073 4415 ft 8 kts 181°
2026-05-07 09:20 39.49124 -119.77074 4415 ft 13 kts 178°
2026-05-07 09:21 39.48988 -119.77068 4415 ft 25 kts 178°
2026-05-07 09:21 39.48778 -119.77060 4416 ft 31 kts 180°
2026-05-07 09:21 39.48572 -119.77066 4420 ft 28 kts 182°
2026-05-07 09:21 39.48422 -119.77071 4423 ft 15 kts 167°
2026-05-07 09:22 39.48378 -119.76981 4424 ft 11 kts 81°
2026-05-07 09:22 39.48440 -119.76930 4422 ft 11 kts 359°
2026-05-07 09:22 39.48518 -119.76932 4422 ft 3 kts 359°
2026-05-07 09:22 39.48527 -119.76932 4421 ft 2 kts 359°
2026-05-07 09:23 39.48547 -119.76932 4421 ft 0 kts 358°
2026-05-07 09:23 39.48553 -119.76932 4421 ft 2 kts 358°
2026-05-07 09:23 39.48574 -119.76933 4420 ft 3 kts 358°
2026-05-07 09:23 39.48604 -119.76935 4420 ft 4 kts 357°
2026-05-07 09:24 39.48638 -119.76937 4419 ft 5 kts 357°
2026-05-07 09:24 39.48750 -119.76942 4417 ft 45 kts 359°
2026-05-07 09:24 39.49308 -119.76936 4412 ft 113 kts
2026-05-07 09:24 39.50308 -119.76945 4414 ft 171 kts 359°
2026-05-07 09:25 39.51593 -119.76968 4728 ft 193 kts 359°
2026-05-07 09:25 39.52937 -119.76746 5464 ft 199 kts 25°
2026-05-07 09:25 39.53951 -119.75481 5999 ft 216 kts 68°
2026-05-07 09:25 39.54076 -119.73563 6501 ft 227 kts 105°
2026-05-07 09:26 39.53283 -119.71740 6946 ft 242 kts 134°
2026-05-07 09:26 39.51874 -119.70476 7403 ft 255 kts 157°
2026-05-07 09:26 39.50234 -119.69467 7957 ft 265 kts 143°
2026-05-07 09:26 39.49098 -119.67609 8610 ft 271 kts 109°
2026-05-07 09:27 39.48927 -119.65205 9197 ft 279 kts 78°
2026-05-07 09:27 39.49560 -119.62802 9705 ft 291 kts 64°
2026-05-07 09:27 39.51534 -119.58006 10767 ft 315 kts 56°
2026-05-07 09:28 39.52766 -119.55596 11212 ft 329 kts 53°
2026-05-07 09:28 39.54290 -119.53332 11569 ft 344 kts 36°
2026-05-07 09:28 39.56488 -119.51975 11961 ft 356 kts 10°
2026-05-07 09:28 39.58954 -119.52042 12540 ft 360 kts 343°
2026-05-07 09:29 39.61139 -119.53527 13307 ft 359 kts 318°
2026-05-07 09:29 39.62626 -119.56107 14060 ft 360 kts 294°
2026-05-07 09:29 39.63434 -119.59151 14748 ft 364 kts 285°
2026-05-07 09:29 39.64055 -119.62364 15482 ft 368 kts 284°
2026-05-07 09:30 39.64672 -119.65607 16141 ft 373 kts 285°
2026-05-07 09:30 39.65329 -119.68824 16825 ft 375 kts 286°
2026-05-07 09:30 39.66051 -119.72071 17447 ft 378 kts 287°
2026-05-07 09:30 39.66845 -119.75338 18070 ft 382 kts 289°
2026-05-07 09:31 39.67714 -119.78619 18672 ft 385 kts 290°
2026-05-07 09:31 39.68652 -119.81853 19261 ft 388 kts 292°
2026-05-07 09:31 39.69677 -119.85086 19846 ft 391 kts 294°
2026-05-07 09:31 39.70821 -119.88381 20393 ft 395 kts 296°
2026-05-07 09:32 39.72027 -119.91554 20956 ft 397 kts 298°
2026-05-07 09:32 39.73330 -119.94714 21454 ft 401 kts 300°
2026-05-07 09:32 39.74740 -119.97862 21995 ft 403 kts 302°
2026-05-07 09:32 39.76239 -120.00953 22566 ft 405 kts 304°
2026-05-07 09:33 39.77826 -120.03993 23106 ft 407 kts 307°
2026-05-07 09:33 39.79503 -120.06984 23596 ft 411 kts 308°
2026-05-07 09:33 39.81273 -120.09904 24096 ft 415 kts 311°
2026-05-07 09:33 39.83172 -120.12798 24602 ft 418 kts 313°
2026-05-07 09:34 39.85143 -120.15571 25088 ft 421 kts 315°
2026-05-07 09:34 39.87222 -120.18267 25610 ft 423 kts 317°
2026-05-07 09:34 39.89405 -120.20875 26035 ft 427 kts 320°
2026-05-07 09:34 39.91702 -120.23386 26504 ft 430 kts 322°
2026-05-07 09:35 39.94124 -120.25796 26956 ft 433 kts 325°
2026-05-07 09:35 39.96609 -120.28037 27413 ft 435 kts 328°
2026-05-07 09:35 39.99168 -120.30124 27820 ft 439 kts 330°
2026-05-07 09:35 40.01828 -120.32068 28271 ft 441 kts 333°
2026-05-07 09:36 40.04602 -120.33865 28681 ft 444 kts 336°
2026-05-07 09:36 40.07403 -120.35445 29358 ft 439 kts 339°
2026-05-07 09:36 40.10248 -120.36864 30018 ft 436 kts 341°
2026-05-07 09:36 40.13159 -120.38150 30596 ft 434 kts 343°
2026-05-07 09:37 40.16069 -120.39254 31125 ft 433 kts 346°
2026-05-07 09:37 40.18966 -120.40152 31704 ft 430 kts 349°
2026-05-07 09:37 40.21917 -120.40855 32186 ft 429 kts 352°
2026-05-07 09:38 40.27927 -120.41496 32253 ft 430 kts
2026-05-07 09:38 40.33860 -120.40861 32233 ft 428 kts
2026-05-07 09:39 40.39810 -120.40140 32243 ft 428 kts
2026-05-07 09:39 40.45757 -120.40860 32249 ft 427 kts 350°
2026-05-07 09:40 40.51491 -120.42831 32258 ft 428 kts 341°
2026-05-07 09:40 40.56984 -120.45908 32269 ft 429 kts 335°
2026-05-07 09:41 40.62309 -120.49631 32278 ft 430 kts 332°
2026-05-07 09:41 40.67496 -120.53577 32281 ft 430 kts 331°
2026-05-07 09:42 40.72675 -120.57626 32284 ft 429 kts 330°
2026-05-07 09:42 40.77797 -120.61661 32285 ft 430 kts 330°
2026-05-07 09:43 40.82957 -120.65735 32286 ft 430 kts 330°
2026-05-07 09:43 40.88094 -120.69796 32289 ft 430 kts 330°
2026-05-07 09:44 40.93225 -120.73858 32294 ft 430 kts 330°
2026-05-07 09:44 40.98340 -120.77913 32297 ft 429 kts 330°
2026-05-07 09:45 41.03458 -120.81977 32295 ft 429 kts 329°
2026-05-07 09:45 41.08580 -120.86053 32284 ft 430 kts 329°
2026-05-07 09:46 41.13704 -120.90138 32270 ft 430 kts 329°
2026-05-07 09:46 41.18829 -120.94231 32268 ft 429 kts 329°
2026-05-07 09:47 41.23936 -120.98316 32264 ft 429 kts 329°
2026-05-07 09:47 41.29063 -121.02426 32258 ft 430 kts 329°
2026-05-07 09:48 41.34205 -121.06555 32253 ft 430 kts 329°
2026-05-07 09:48 41.39281 -121.10640 32250 ft 429 kts 329°
2026-05-07 09:49 41.44397 -121.14763 32243 ft 429 kts 329°
2026-05-07 09:49 41.49520 -121.18900 32240 ft 428 kts 329°
2026-05-07 09:50 41.54664 -121.23061 32235 ft 429 kts 329°
2026-05-07 09:50 41.59786 -121.27213 32235 ft 429 kts 329°
2026-05-07 09:51 41.64898 -121.31364 32233 ft 430 kts 329°
2026-05-07 09:51 41.69997 -121.35513 32233 ft 429 kts 329°
2026-05-07 09:52 41.75092 -121.39665 32231 ft 429 kts 329°
2026-05-07 09:52 41.80168 -121.43810 32228 ft 429 kts 329°
2026-05-07 09:53 41.85327 -121.48031 32223 ft 438 kts 329°
2026-05-07 09:53 41.90523 -121.52290 32220 ft 437 kts 329°
2026-05-07 09:54 41.95712 -121.56552 32216 ft 438 kts 329°
2026-05-07 09:54 42.00892 -121.60815 32217 ft 437 kts 329°
2026-05-07 09:55 42.06070 -121.65084 32209 ft 436 kts 328°
2026-05-07 09:55 42.11269 -121.69379 32165 ft 437 kts 328°
2026-05-07 09:56 42.16526 -121.73392 32147 ft 437 kts 334°
2026-05-07 09:56 42.22109 -121.76757 32161 ft 436 kts 337°
2026-05-07 09:57 42.27692 -121.79858 32208 ft 436 kts 337°
2026-05-07 09:57 42.33302 -121.82964 32227 ft 436 kts 337°
2026-05-07 09:58 42.38908 -121.86102 32227 ft 436 kts 337°
2026-05-07 09:58 42.44526 -121.89275 32224 ft 436 kts 336°
2026-05-07 09:59 42.50111 -121.92448 32224 ft 435 kts 336°
2026-05-07 09:59 42.55675 -121.95619 32223 ft 435 kts 336°
2026-05-07 10:00 42.61277 -121.98821 32222 ft 435 kts 336°
2026-05-07 10:00 42.66835 -122.02003 32226 ft 434 kts 336°
2026-05-07 10:01 42.72397 -122.05195 32237 ft 434 kts 336°
2026-05-07 10:01 42.77966 -122.08396 32248 ft 434 kts 336°
2026-05-07 10:02 42.83533 -122.11604 32254 ft 435 kts 336°
2026-05-07 10:02 42.89167 -122.14855 32259 ft 434 kts 336°
2026-05-07 10:03 42.94745 -122.17961 32259 ft 434 kts 339°
2026-05-07 10:03 43.00477 -122.20670 32258 ft 435 kts 340°
2026-05-07 10:04 43.06166 -122.23247 32249 ft 434 kts 340°
2026-05-07 10:04 43.11894 -122.25871 32238 ft 434 kts 340°
2026-05-07 10:05 43.17611 -122.28532 32224 ft 433 kts 340°
2026-05-07 10:05 43.23303 -122.31205 32208 ft 433 kts 340°
2026-05-07 10:06 43.29014 -122.33903 32205 ft 434 kts 340°
2026-05-07 10:06 43.34714 -122.36605 32203 ft 433 kts 340°
2026-05-07 10:07 43.40391 -122.39303 32196 ft 432 kts 339°
2026-05-07 10:07 43.46077 -122.42011 32196 ft 432 kts 339°
2026-05-07 10:07 43.48889 -122.43353 32029 ft 423 kts 339°
2026-05-07 10:08 43.51638 -122.44666 31762 ft 414 kts 339°
2026-05-07 10:08 43.54314 -122.45944 31497 ft 406 kts 339°
2026-05-07 10:08 43.56965 -122.47213 31232 ft 398 kts 339°
2026-05-07 10:08 43.59554 -122.48455 30963 ft 389 kts 339°
2026-05-07 10:09 43.62090 -122.49674 30697 ft 382 kts 339°
2026-05-07 10:09 43.64555 -122.50857 30435 ft 374 kts 339°
2026-05-07 10:09 43.67002 -122.52035 30170 ft 367 kts 339°
2026-05-07 10:09 43.69368 -122.53174 29909 ft 360 kts 339°
2026-05-07 10:10 43.71710 -122.54303 29647 ft 358 kts 339°
2026-05-07 10:10 43.74086 -122.55451 29390 ft 362 kts 338°
2026-05-07 10:10 43.76483 -122.56612 29129 ft 364 kts 338°
2026-05-07 10:10 43.78849 -122.57758 28868 ft 364 kts 338°
2026-05-07 10:11 43.81239 -122.58916 28605 ft 363 kts 339°
2026-05-07 10:11 43.83614 -122.60064 28347 ft 362 kts 338°
2026-05-07 10:11 43.85994 -122.61215 28087 ft 360 kts 338°
2026-05-07 10:11 43.88353 -122.62357 27825 ft 360 kts 338°
2026-05-07 10:12 43.90713 -122.63501 27567 ft 359 kts 338°
2026-05-07 10:12 43.93050 -122.64633 27308 ft 356 kts 338°
2026-05-07 10:12 43.95385 -122.65765 27046 ft 355 kts 338°
2026-05-07 10:12 43.97725 -122.66902 26784 ft 354 kts 337°
2026-05-07 10:13 44.00041 -122.68030 26527 ft 354 kts 337°
2026-05-07 10:13 44.02356 -122.69157 26269 ft 351 kts 337°
2026-05-07 10:13 44.04642 -122.70271 26010 ft 349 kts 337°
2026-05-07 10:13 44.06920 -122.71382 25750 ft 348 kts 337°
2026-05-07 10:14 44.09192 -122.72491 25493 ft 347 kts 337°
2026-05-07 10:14 44.11476 -122.73605 25233 ft 346 kts 338°
2026-05-07 10:14 44.13771 -122.74583 24978 ft 347 kts 342°
2026-05-07 10:14 44.16160 -122.75125 24721 ft 350 kts 352°
2026-05-07 10:15 44.18619 -122.75150 24474 ft 360 kts 358°
2026-05-07 10:15 44.21147 -122.74942 24228 ft 367 kts 360°
2026-05-07 10:15 44.23686 -122.74653 23980 ft 368 kts
2026-05-07 10:15 44.26241 -122.74345 23731 ft 367 kts
2026-05-07 10:16 44.28801 -122.74044 23484 ft 367 kts
2026-05-07 10:16 44.31309 -122.73764 23242 ft 368 kts 360°
2026-05-07 10:16 44.33882 -122.73489 22996 ft 369 kts 360°
2026-05-07 10:16 44.36445 -122.73224 22756 ft 369 kts 360°
2026-05-07 10:17 44.38977 -122.72968 22513 ft 368 kts 359°
2026-05-07 10:17 44.41527 -122.72712 22274 ft 368 kts 359°
2026-05-07 10:17 44.44089 -122.72457 22036 ft 369 kts 359°
2026-05-07 10:17 44.46666 -122.72200 21797 ft 369 kts 359°
2026-05-07 10:18 44.49221 -122.71946 21555 ft 368 kts 359°
2026-05-07 10:18 44.51745 -122.71694 21314 ft 369 kts 359°
2026-05-07 10:18 44.54385 -122.71437 21079 ft 388 kts 359°
2026-05-07 10:18 44.57094 -122.71178 20843 ft 398 kts 359°
2026-05-07 10:19 44.59860 -122.70906 20597 ft 397 kts 360°
2026-05-07 10:19 44.62624 -122.70626 20346 ft 394 kts 360°
2026-05-07 10:19 44.65342 -122.70348 20123 ft 392 kts 359°
2026-05-07 10:19 44.68064 -122.70068 19847 ft 391 kts 359°
2026-05-07 10:20 44.70754 -122.69796 19142 ft 396 kts 359°
2026-05-07 10:20 44.73529 -122.69520 18092 ft 406 kts 359°
2026-05-07 10:20 44.76359 -122.69238 17223 ft 410 kts 359°
2026-05-07 10:20 44.79169 -122.68955 16488 ft 408 kts 360°
2026-05-07 10:21 44.81984 -122.68665 16007 ft 400 kts 359°
2026-05-07 10:21 44.84734 -122.68380 15406 ft 397 kts 359°
2026-05-07 10:21 44.87498 -122.68097 14824 ft 393 kts 359°
2026-05-07 10:21 44.90158 -122.67823 14544 ft 380 kts 359°
2026-05-07 10:22 44.92779 -122.67553 14115 ft 373 kts 359°
2026-05-07 10:22 44.95351 -122.67293 13630 ft 369 kts 359°
2026-05-07 10:22 44.97875 -122.67041 13129 ft 364 kts 359°
2026-05-07 10:22 45.00363 -122.66792 12662 ft 359 kts 359°
2026-05-07 10:23 45.02837 -122.66544 12203 ft 354 kts 359°
2026-05-07 10:23 45.05300 -122.66295 11716 ft 350 kts 360°
2026-05-07 10:23 45.07703 -122.66052 11253 ft 345 kts 360°
2026-05-07 10:23 45.10092 -122.65810 10814 ft 340 kts 360°
2026-05-07 10:24 45.12418 -122.65574 10375 ft 336 kts 360°
2026-05-07 10:24 45.14744 -122.65339 9929 ft 332 kts 360°
2026-05-07 10:24 45.17031 -122.65109 9502 ft 328 kts 360°
2026-05-07 10:24 45.19289 -122.64883 9077 ft 324 kts
2026-05-07 10:25 45.21534 -122.64657 8956 ft 310 kts 360°
2026-05-07 10:25 45.23618 -122.64421 8954 ft 295 kts
2026-05-07 10:25 45.25583 -122.63834 8957 ft 284 kts 16°
2026-05-07 10:25 45.27321 -122.62515 8990 ft 290 kts 30°
2026-05-07 10:26 45.29030 -122.60799 8564 ft 315 kts 30°
2026-05-07 10:26 45.30886 -122.59023 7843 ft 323 kts 29°
2026-05-07 10:26 45.32765 -122.57299 7089 ft 331 kts 28°
2026-05-07 10:26 45.34729 -122.55536 6343 ft 336 kts 28°
2026-05-07 10:27 45.36676 -122.53796 6013 ft 327 kts 29°
2026-05-07 10:27 45.38560 -122.52108 5956 ft 310 kts 29°
2026-05-07 10:27 45.40332 -122.50513 5964 ft 294 kts 29°
2026-05-07 10:27 45.42023 -122.48994 5956 ft 277 kts 27°
2026-05-07 10:28 45.43702 -122.47808 5823 ft 264 kts 15°
2026-05-07 10:28 45.45491 -122.47520 5276 ft 265 kts 347°
2026-05-07 10:28 45.47195 -122.48515 4670 ft 269 kts 327°
2026-05-07 10:28 45.48781 -122.50005 4029 ft 278 kts 325°
2026-05-07 10:29 45.50407 -122.51555 3369 ft 285 kts 326°
2026-05-07 10:29 45.52058 -122.53067 2859 ft 276 kts 328°
2026-05-07 10:29 45.53636 -122.54475 2498 ft 261 kts 328°
2026-05-07 10:30 45.55660 -122.57575 2969 ft 179 kts 263°
2026-05-07 10:30 45.55247 -122.59246 2447 ft 196 kts 227°
2026-05-07 10:30 45.54033 -122.59933 2033 ft 205 kts 173°
2026-05-07 10:30 45.52522 -122.59754 2061 ft 223 kts 167°
2026-05-07 10:31 45.51210 -122.58704 2454 ft 218 kts 129°
2026-05-07 10:31 45.50367 -122.56967 2901 ft 212 kts 121°
2026-05-07 10:31 45.49882 -122.54967 3399 ft 220 kts 87°
2026-05-07 10:31 45.50495 -122.53027 3677 ft 234 kts 34°
2026-05-07 10:32 45.52045 -122.52392 4070 ft 219 kts
2026-05-07 10:32 45.53415 -122.52457 4450 ft 191 kts 353°
2026-05-07 10:32 45.54829 -122.52514 3415 ft 220 kts 356°
2026-05-07 10:32 45.56331 -122.52775 2366 ft 237 kts 338°
2026-05-07 10:33 45.57187 -122.54602 1244 ft 234 kts 269°
2026-05-07 10:33 45.57334 -122.56808 679 ft 215 kts 285°
2026-05-07 10:33 45.57958 -122.58604 248 ft 197 kts 311°
2026-05-07 10:33 45.58696 -122.60027 19 ft 5 kts 297°